Location: Bruch
(44.2051°N, 0.4120°E)
Time: 06:03:05
(UTC+00:00)

EO 1 Delta rocket - Pass Details

Date: 29 November 2020
Orbit: 698 x 1791 km, 95.4° (Epoch: 27 January)

Event Time Altitude Azimuth Distance (km) Brightness Sun altitude
Rises 05:36:08 0° 170° (S) 3,432 7.7 -16.7°
Reaches altitude 10° 05:38:38 10° 170° (S) 2,388 6.9 -16.2°
Maximum altitude 05:43:45 87° 260° (W) 738 3.8 -15.4°
Drops below altitude 10° 05:48:24 10° 350° (N) 2,173 6.1 -14.6°
Sets 05:50:36 0° 351° (N) 3,097 6.9 -14.2°
